FDX454 KMIA-KLAX

Flight info

Callsign FDX454
Flight time 4h 56m
Altitude 34000
Route GLADZ4 BAGGS REMIS Y280 LEV J86 ELP J50 ALIBY/N0483F360 J50 SSO J4 WLVRN ESTWD HLYWD1
Aircraft B77L/H-SDE1E2E3FGHIJ2J3J4J5M1RWXY/LB1D1

Departure

Time 2026-05-07 17:47
Airport Miami International Airport (KMIA)

Arrival

Time 2026-05-07 22:43
Airport Los Angeles International Airport (KLAX)
Time Latitude Longitude Altitude Speed Heading
2026-05-07 17:27 25.80512 -80.29387 19 ft 0 kts 357°
2026-05-07 17:32 25.80506 -80.29386 20 ft 4 kts 357°
2026-05-07 17:32 25.80480 -80.29384 21 ft 4 kts 353°
2026-05-07 17:32 25.80456 -80.29379 22 ft 3 kts 342°
2026-05-07 17:32 25.80445 -80.29375 22 ft 2 kts 324°
2026-05-07 17:33 25.80435 -80.29362 23 ft 2 kts 281°
2026-05-07 17:33 25.80434 -80.29350 25 ft 2 kts 270°
2026-05-07 17:33 25.80434 -80.29340 25 ft 0 kts 269°
2026-05-07 17:40 25.80433 -80.29369 19 ft 7 kts 269°
2026-05-07 17:40 25.80431 -80.29439 19 ft 10 kts 267°
2026-05-07 17:40 25.80427 -80.29519 19 ft 10 kts 267°
2026-05-07 17:41 25.80424 -80.29600 21 ft 10 kts 268°
2026-05-07 17:41 25.80421 -80.29681 20 ft 10 kts 267°
2026-05-07 17:41 25.80417 -80.29761 20 ft 10 kts 267°
2026-05-07 17:41 25.80414 -80.29842 20 ft 10 kts 267°
2026-05-07 17:42 25.80410 -80.29923 19 ft 10 kts 267°
2026-05-07 17:42 25.80407 -80.30001 19 ft 8 kts 267°
2026-05-07 17:42 25.80406 -80.30020 19 ft 1 kts 263°
2026-05-07 17:42 25.80405 -80.30026 19 ft 1 kts 260°
2026-05-07 17:43 25.80401 -80.30036 19 ft 1 kts 248°
2026-05-07 17:43 25.80400 -80.30038 19 ft 0 kts 245°
2026-05-07 17:45 25.80400 -80.30039 19 ft 1 kts 243°
2026-05-07 17:45 25.80373 -80.30061 19 ft 8 kts 201°
2026-05-07 17:45 25.80308 -80.30063 19 ft 10 kts 178°
2026-05-07 17:45 25.80239 -80.30060 19 ft 10 kts 178°
2026-05-07 17:46 25.80169 -80.30058 19 ft 10 kts 178°
2026-05-07 17:46 25.80102 -80.30034 18 ft 11 kts 137°
2026-05-07 17:46 25.80080 -80.29949 17 ft 18 kts 93°
2026-05-07 17:46 25.80096 -80.29518 18 ft 102 kts 87°
2026-05-07 17:47 25.80140 -80.28392 22 ft 188 kts 88°
2026-05-07 17:47 25.80212 -80.26780 327 ft 225 kts 90°
2026-05-07 17:47 25.80255 -80.25573 795 ft 239 kts 90°
2026-05-07 17:47 25.80344 -80.23113 2304 ft 242 kts 88°
2026-05-07 17:48 25.80441 -80.21191 3079 ft 256 kts 87°
2026-05-07 17:48 25.80563 -80.19180 3683 ft 266 kts 79°
2026-05-07 17:48 25.80961 -80.17883 4056 ft 272 kts 58°
2026-05-07 17:48 25.82278 -80.16387 4710 ft 271 kts 27°
2026-05-07 17:49 25.84098 -80.15840 5015 ft 276 kts
2026-05-07 17:49 25.86046 -80.15790 4999 ft 281 kts
2026-05-07 17:49 25.87992 -80.15741 4992 ft 278 kts
2026-05-07 17:49 25.89895 -80.15820 4983 ft 270 kts 347°
2026-05-07 17:50 25.91707 -80.16396 5006 ft 274 kts 341°
2026-05-07 17:50 25.93527 -80.17083 5003 ft 277 kts 340°
2026-05-07 17:50 25.95359 -80.17757 4992 ft 276 kts 340°
2026-05-07 17:50 25.97147 -80.18472 4986 ft 269 kts 330°
2026-05-07 17:51 25.98509 -80.19846 5000 ft 268 kts 300°
2026-05-07 17:51 25.99182 -80.21755 5010 ft 271 kts 279°
2026-05-07 17:51 25.99424 -80.23832 5011 ft 274 kts 276°
2026-05-07 17:51 25.99658 -80.25938 5008 ft 272 kts 276°
2026-05-07 17:52 25.99844 -80.28016 4996 ft 268 kts 271°
2026-05-07 17:52 25.99846 -80.30082 5006 ft 267 kts 268°
2026-05-07 17:52 25.99808 -80.32154 4998 ft 269 kts 269°
2026-05-07 17:52 25.99785 -80.34234 5003 ft 269 kts 269°
2026-05-07 17:53 25.99773 -80.36320 4994 ft 270 kts 269°
2026-05-07 17:53 25.99768 -80.38408 5005 ft 270 kts 269°
2026-05-07 17:53 25.99763 -80.40497 4996 ft 271 kts 269°
2026-05-07 17:53 25.99651 -80.42562 4982 ft 265 kts 253°
2026-05-07 17:54 25.98762 -80.44321 5007 ft 263 kts 231°
2026-05-07 17:54 25.97589 -80.45922 5008 ft 270 kts 232°
2026-05-07 17:54 25.96415 -80.47577 5005 ft 273 kts 232°
2026-05-07 17:54 25.95243 -80.49235 4992 ft 272 kts 232°
2026-05-07 17:55 25.94082 -80.50876 4986 ft 268 kts 232°
2026-05-07 17:55 25.92934 -80.52500 4994 ft 266 kts 233°
2026-05-07 17:55 25.91791 -80.54116 4989 ft 266 kts 232°
2026-05-07 17:55 25.90644 -80.55738 4986 ft 267 kts 232°
2026-05-07 17:56 25.89495 -80.57362 4992 ft 268 kts 232°
2026-05-07 17:56 25.88354 -80.58974 4998 ft 269 kts 232°
2026-05-07 17:56 25.87193 -80.60615 4997 ft 271 kts 232°
2026-05-07 17:56 25.86026 -80.62264 4994 ft 272 kts 232°
2026-05-07 17:57 25.84856 -80.63916 4995 ft 273 kts 232°
2026-05-07 17:57 25.84077 -80.65016 5122 ft 272 kts 232°
2026-05-07 17:57 25.82508 -80.67234 6131 ft 276 kts 232°
2026-05-07 17:57 25.81306 -80.68929 6871 ft 282 kts 231°
2026-05-07 17:58 25.80084 -80.70651 7623 ft 286 kts 231°
2026-05-07 17:58 25.78867 -80.72377 8331 ft 288 kts 233°
2026-05-07 17:58 25.77955 -80.74372 8865 ft 295 kts 253°
2026-05-07 17:58 25.77421 -80.76593 9523 ft 300 kts 254°
2026-05-07 17:59 25.76857 -80.78826 10245 ft 303 kts 253°
2026-05-07 17:59 25.76255 -80.81113 10593 ft 322 kts 253°
2026-05-07 17:59 25.75592 -80.83578 10760 ft 346 kts 253°
2026-05-07 17:59 25.74873 -80.86219 10957 ft 369 kts 253°
2026-05-07 18:00 25.74112 -80.89009 11301 ft 384 kts 253°
2026-05-07 18:00 25.73327 -80.91881 11932 ft 391 kts 253°
2026-05-07 18:00 25.72533 -80.94786 12707 ft 394 kts 253°
2026-05-07 18:00 25.71735 -80.97701 13482 ft 396 kts 253°
2026-05-07 18:01 25.70932 -81.00635 14187 ft 400 kts 254°
2026-05-07 18:01 25.70122 -81.03593 14850 ft 402 kts 254°
2026-05-07 18:01 25.69305 -81.06571 15538 ft 404 kts 254°
2026-05-07 18:01 25.68484 -81.09564 16211 ft 407 kts 255°
2026-05-07 18:02 25.66817 -81.15640 17340 ft 417 kts 254°
2026-05-07 18:02 25.65967 -81.18730 17962 ft 420 kts 254°
2026-05-07 18:02 25.65200 -81.21837 18504 ft 417 kts 262°
2026-05-07 18:03 25.65234 -81.25059 18835 ft 421 kts 282°
2026-05-07 18:03 25.66160 -81.28125 19391 ft 419 kts 296°
2026-05-07 18:03 25.67470 -81.30971 19899 ft 421 kts 297°
2026-05-07 18:03 25.68827 -81.33864 20404 ft 424 kts 297°
2026-05-07 18:04 25.70189 -81.36773 20986 ft 425 kts 297°
2026-05-07 18:04 25.71542 -81.39686 21585 ft 426 kts 296°
2026-05-07 18:04 25.72897 -81.42628 22104 ft 429 kts 296°
2026-05-07 18:04 25.74251 -81.45588 22563 ft 432 kts 296°
2026-05-07 18:05 25.75613 -81.48580 23048 ft 435 kts 296°
2026-05-07 18:05 25.76979 -81.51588 23547 ft 437 kts 295°
2026-05-07 18:05 25.78350 -81.54612 23960 ft 440 kts 295°
2026-05-07 18:05 25.79726 -81.57647 24359 ft 442 kts 295°
2026-05-07 18:06 25.81092 -81.60663 24781 ft 444 kts 295°
2026-05-07 18:06 25.82480 -81.63731 25158 ft 446 kts 295°
2026-05-07 18:06 25.83874 -81.66812 25542 ft 448 kts 295°
2026-05-07 18:06 25.85275 -81.69910 25931 ft 450 kts 295°
2026-05-07 18:07 25.86684 -81.73029 26320 ft 452 kts 295°
2026-05-07 18:07 25.88102 -81.76151 26685 ft 452 kts 297°
2026-05-07 18:07 25.89880 -81.79057 26930 ft 461 kts 311°
2026-05-07 18:07 25.92351 -81.81345 27234 ft 464 kts 322°
2026-05-07 18:08 25.95006 -81.83418 27493 ft 468 kts 321°
2026-05-07 18:08 25.97644 -81.85560 27822 ft 471 kts 321°
2026-05-07 18:08 26.00271 -81.87743 28219 ft 472 kts 320°
2026-05-07 18:08 26.02892 -81.89946 28589 ft 473 kts 320°
2026-05-07 18:09 26.05484 -81.92135 28962 ft 474 kts 320°
2026-05-07 18:09 26.08118 -81.94362 29304 ft 476 kts 320°
2026-05-07 18:09 26.10759 -81.96593 29598 ft 478 kts 320°
2026-05-07 18:09 26.13415 -81.98837 29934 ft 480 kts 320°
2026-05-07 18:10 26.16076 -82.01083 30334 ft 478 kts 320°
2026-05-07 18:10 26.18723 -82.03316 30770 ft 476 kts 320°
2026-05-07 18:10 26.21353 -82.05535 31212 ft 473 kts 320°
2026-05-07 18:10 26.23979 -82.07753 31628 ft 472 kts 320°
2026-05-07 18:11 26.26561 -82.09935 32021 ft 471 kts 320°
2026-05-07 18:11 26.28316 -82.11419 32285 ft 470 kts 320°
2026-05-07 18:11 26.31760 -82.14333 32803 ft 468 kts 320°
2026-05-07 18:11 26.34349 -82.16526 33202 ft 466 kts 320°
2026-05-07 18:12 26.36928 -82.18712 33615 ft 464 kts 319°
2026-05-07 18:12 26.39492 -82.20894 34020 ft 463 kts 319°
2026-05-07 18:12 26.42057 -82.23080 34062 ft 466 kts 319°
2026-05-07 18:13 26.47210 -82.27461 34069 ft 464 kts 319°
2026-05-07 18:13 26.52332 -82.31811 34073 ft 461 kts 319°
2026-05-07 18:14 26.57433 -82.36149 34074 ft 460 kts 319°
2026-05-07 18:14 26.62496 -82.40463 34083 ft 460 kts 319°
2026-05-07 18:15 26.67590 -82.44808 34084 ft 461 kts 319°
2026-05-07 18:15 26.72690 -82.49163 34077 ft 462 kts 319°
2026-05-07 18:16 26.77804 -82.53535 34074 ft 462 kts 319°
2026-05-07 18:16 26.82918 -82.57912 34078 ft 463 kts 319°
2026-05-07 18:17 26.88033 -82.62295 34071 ft 463 kts 319°
2026-05-07 18:17 26.93146 -82.66680 34084 ft 463 kts 319°
2026-05-07 18:18 26.98234 -82.71050 34074 ft 463 kts 319°
2026-05-07 18:18 27.03347 -82.75445 34081 ft 463 kts 318°
2026-05-07 18:19 27.08459 -82.79844 34082 ft 463 kts 318°
2026-05-07 18:19 27.13188 -82.84617 34088 ft 452 kts 302°
2026-05-07 18:19 27.14711 -82.87665 34075 ft 446 kts 288°
2026-05-07 18:20 27.15700 -82.90942 34085 ft 444 kts 287°
2026-05-07 18:20 27.17715 -82.97535 34083 ft 447 kts 288°
2026-05-07 18:21 27.19800 -83.04138 34075 ft 450 kts 288°
2026-05-07 18:21 27.21921 -83.10790 34070 ft 452 kts 288°
2026-05-07 18:22 27.24046 -83.17457 34068 ft 453 kts 288°
2026-05-07 18:22 27.26169 -83.24130 34057 ft 453 kts 288°
2026-05-07 18:23 27.28270 -83.30752 34065 ft 452 kts 288°
2026-05-07 18:23 27.30372 -83.37392 34060 ft 450 kts 288°
2026-05-07 18:24 27.32464 -83.44010 34086 ft 448 kts 288°
2026-05-07 18:24 27.34548 -83.50617 34063 ft 447 kts 288°
2026-05-07 18:25 27.36617 -83.57189 34074 ft 445 kts 287°
2026-05-07 18:25 27.38680 -83.63753 34072 ft 444 kts 287°
2026-05-07 18:26 27.40735 -83.70307 34058 ft 444 kts 287°
2026-05-07 18:26 27.42787 -83.76859 34065 ft 444 kts 287°
2026-05-07 18:27 27.44826 -83.83384 34056 ft 444 kts 287°
2026-05-07 18:27 27.46875 -83.89952 34066 ft 445 kts 287°
2026-05-07 18:28 27.48928 -83.96548 34050 ft 446 kts 287°
2026-05-07 18:28 27.50982 -84.03155 34066 ft 446 kts 287°
2026-05-07 18:29 27.53019 -84.09724 34051 ft 446 kts 287°
2026-05-07 18:29 27.55065 -84.16330 34055 ft 447 kts 287°
2026-05-07 18:30 27.57110 -84.22950 34054 ft 447 kts 287°
2026-05-07 18:30 27.59152 -84.29570 34053 ft 446 kts 287°
2026-05-07 18:31 27.61174 -84.36140 34062 ft 446 kts 287°
2026-05-07 18:31 27.63207 -84.42755 34059 ft 446 kts 287°
2026-05-07 18:32 27.65234 -84.49366 34059 ft 446 kts 287°
2026-05-07 18:32 27.67260 -84.55984 34041 ft 446 kts 287°
2026-05-07 18:33 27.69282 -84.62605 34053 ft 445 kts 287°
2026-05-07 18:33 27.71288 -84.69182 34061 ft 445 kts 287°
2026-05-07 18:34 27.73300 -84.75795 34048 ft 445 kts 287°
2026-05-07 18:34 27.75307 -84.82403 34048 ft 445 kts 287°
2026-05-07 18:35 27.77313 -84.89018 34043 ft 444 kts 287°
2026-05-07 18:35 27.79297 -84.95574 34043 ft 444 kts 287°
2026-05-07 18:36 27.81293 -85.02184 34054 ft 444 kts 287°
2026-05-07 18:36 27.83289 -85.08803 34061 ft 444 kts 287°
2026-05-07 18:37 27.85279 -85.15413 34063 ft 444 kts 287°
2026-05-07 18:37 27.86933 -85.20915 34041 ft 444 kts 286°
2026-05-07 18:38 27.89245 -85.28615 34043 ft 445 kts 287°
2026-05-07 18:38 27.90924 -85.34156 34055 ft 445 kts 287°
2026-05-07 18:39 27.92922 -85.40738 34046 ft 445 kts 287°
2026-05-07 18:39 27.94930 -85.47365 34044 ft 445 kts 286°
2026-05-07 18:40 27.96936 -85.54003 34039 ft 445 kts 286°
2026-05-07 18:40 27.98937 -85.60640 34041 ft 446 kts 286°
2026-05-07 18:41 28.00937 -85.67284 34055 ft 446 kts 286°
2026-05-07 18:41 28.02919 -85.73883 34043 ft 445 kts 286°
2026-05-07 18:42 28.04907 -85.80517 34043 ft 445 kts 286°
2026-05-07 18:42 28.06892 -85.87152 34043 ft 445 kts 286°
2026-05-07 18:43 28.08873 -85.93789 34040 ft 444 kts 286°
2026-05-07 18:43 28.10851 -86.00425 34040 ft 444 kts 286°
2026-05-07 18:44 28.12809 -86.07012 34038 ft 444 kts 286°
2026-05-07 18:44 28.14776 -86.13638 34041 ft 444 kts 285°
2026-05-07 18:45 28.16742 -86.20274 34036 ft 444 kts 285°
2026-05-07 18:45 28.18709 -86.26929 34039 ft 444 kts 285°
2026-05-07 18:46 28.20669 -86.33571 34038 ft 445 kts 285°
2026-05-07 18:46 28.22616 -86.40183 34039 ft 445 kts 285°
2026-05-07 18:47 28.24574 -86.46846 34039 ft 445 kts 285°
2026-05-07 18:47 28.26531 -86.53517 34038 ft 445 kts 285°
2026-05-07 18:48 28.28486 -86.60193 34034 ft 446 kts 285°
2026-05-07 18:48 28.30436 -86.66863 34036 ft 446 kts 285°
2026-05-07 18:49 28.32388 -86.73554 34038 ft 446 kts 285°
2026-05-07 18:49 28.34341 -86.80233 34045 ft 446 kts 285°
2026-05-07 18:50 28.36279 -86.86861 34037 ft 445 kts 285°
2026-05-07 18:50 28.38225 -86.93528 34034 ft 444 kts 285°
2026-05-07 18:51 28.40161 -87.00177 34038 ft 442 kts 284°
2026-05-07 18:51 28.42090 -87.06814 34032 ft 441 kts 284°
2026-05-07 18:52 28.43998 -87.13397 34030 ft 441 kts 284°
2026-05-07 18:52 28.45914 -87.20016 34035 ft 440 kts 284°
2026-05-07 18:53 28.47824 -87.26632 34039 ft 440 kts 284°
2026-05-07 18:53 28.49732 -87.33252 34036 ft 441 kts 284°
2026-05-07 18:54 28.51638 -87.39877 34033 ft 441 kts 284°
2026-05-07 18:54 28.53545 -87.46519 34033 ft 442 kts 284°
2026-05-07 18:55 28.55447 -87.53161 34032 ft 442 kts 284°
2026-05-07 18:55 28.57350 -87.59815 34027 ft 443 kts 284°
2026-05-07 18:56 28.59250 -87.66475 34034 ft 443 kts 284°
2026-05-07 18:56 28.61139 -87.73110 34034 ft 443 kts 284°
2026-05-07 18:57 28.63034 -87.79779 34030 ft 443 kts 284°
2026-05-07 18:57 28.64930 -87.86466 34054 ft 442 kts 284°
2026-05-07 18:58 28.66800 -87.93064 34032 ft 434 kts 284°
2026-05-07 18:58 28.68645 -87.99598 34031 ft 433 kts 283°
2026-05-07 18:59 28.70473 -88.06083 34030 ft 433 kts 283°
2026-05-07 18:59 28.72310 -88.12629 34033 ft 433 kts 283°
2026-05-07 19:00 28.74139 -88.19177 34029 ft 434 kts 283°
2026-05-07 19:00 28.75971 -88.25738 34034 ft 434 kts 283°
2026-05-07 19:01 28.77800 -88.32300 34027 ft 435 kts 283°
2026-05-07 19:01 28.79630 -88.38878 34024 ft 435 kts 283°
2026-05-07 19:02 28.81461 -88.45468 34026 ft 436 kts 283°
2026-05-07 19:02 28.83290 -88.52066 34021 ft 436 kts 283°
2026-05-07 19:03 28.85103 -88.58620 34022 ft 436 kts 283°
2026-05-07 19:03 28.86927 -88.65226 34021 ft 436 kts 283°
2026-05-07 19:04 28.88684 -88.71863 34021 ft 435 kts 280°
2026-05-07 19:04 28.90120 -88.78560 34019 ft 434 kts 279°
2026-05-07 19:05 28.91511 -88.85223 34022 ft 434 kts 279°
2026-05-07 19:05 28.92924 -88.91934 34018 ft 434 kts 279°
2026-05-07 19:06 28.94343 -88.98643 34019 ft 435 kts 279°
2026-05-07 19:06 28.96463 -89.08673 34019 ft 434 kts 278°
2026-05-07 19:07 28.97873 -89.15364 34016 ft 432 kts 278°
2026-05-07 19:07 28.99274 -89.22031 34015 ft 430 kts 278°
2026-05-07 19:08 29.00666 -89.28673 34018 ft 430 kts 278°
2026-05-07 19:08 29.02055 -89.35323 34018 ft 430 kts 278°
2026-05-07 19:09 29.03434 -89.41943 34014 ft 431 kts 278°
2026-05-07 19:09 29.04821 -89.48617 34014 ft 432 kts 278°
2026-05-07 19:10 29.06208 -89.55307 34013 ft 433 kts 278°
2026-05-07 19:10 29.07597 -89.62019 34010 ft 433 kts 278°
2026-05-07 19:11 29.08981 -89.68729 34010 ft 434 kts 278°
2026-05-07 19:11 29.10364 -89.75454 34009 ft 434 kts 278°
2026-05-07 19:12 29.11736 -89.82140 34012 ft 434 kts 278°
2026-05-07 19:12 29.13112 -89.88862 34011 ft 434 kts 278°
2026-05-07 19:13 29.14484 -89.95583 34007 ft 433 kts 278°
2026-05-07 19:13 29.15855 -90.02312 34011 ft 433 kts 277°
2026-05-07 19:14 29.17213 -90.08997 34011 ft 434 kts 277°
2026-05-07 19:14 29.18476 -90.15734 34020 ft 432 kts 276°
2026-05-07 19:15 29.19588 -90.22503 34019 ft 432 kts 275°
2026-05-07 19:15 29.20696 -90.29266 34018 ft 433 kts 275°
2026-05-07 19:16 29.21824 -90.36045 34021 ft 433 kts 276°
2026-05-07 19:16 29.22961 -90.42831 34021 ft 433 kts 275°
2026-05-07 19:17 29.24096 -90.49618 34015 ft 434 kts 275°
2026-05-07 19:17 29.25220 -90.56354 34031 ft 433 kts 275°
2026-05-07 19:18 29.26350 -90.63146 34018 ft 432 kts 275°
2026-05-07 19:18 29.27469 -90.69902 34015 ft 431 kts 275°
2026-05-07 19:19 29.28574 -90.76595 34024 ft 430 kts 275°
2026-05-07 19:19 29.29681 -90.83326 34010 ft 429 kts 275°
2026-05-07 19:20 29.30783 -90.90049 34022 ft 429 kts 275°
2026-05-07 19:20 29.31877 -90.96740 34022 ft 429 kts 275°
2026-05-07 19:21 29.32976 -91.03489 34005 ft 430 kts 275°
2026-05-07 19:21 29.34071 -91.10231 34025 ft 430 kts 275°
2026-05-07 19:22 29.35166 -91.16992 34003 ft 431 kts 275°
2026-05-07 19:22 29.36248 -91.23702 34026 ft 431 kts 275°
2026-05-07 19:23 29.37337 -91.30475 34029 ft 431 kts 275°
2026-05-07 19:23 29.38422 -91.37241 34013 ft 432 kts 275°
2026-05-07 19:24 29.39504 -91.44013 34024 ft 432 kts 275°
2026-05-07 19:24 29.40584 -91.50802 34027 ft 432 kts 275°
2026-05-07 19:25 29.41660 -91.57582 34017 ft 432 kts 276°
2026-05-07 19:25 29.42726 -91.64324 34020 ft 432 kts 275°
2026-05-07 19:26 29.43794 -91.71102 34022 ft 431 kts 275°
2026-05-07 19:26 29.44680 -91.76744 34022 ft 431 kts 275°
2026-05-07 19:27 29.45740 -91.83510 34036 ft 431 kts 275°
2026-05-07 19:27 29.46967 -91.91376 34034 ft 430 kts 275°
2026-05-07 19:28 29.47842 -91.97007 34035 ft 430 kts 275°
2026-05-07 19:28 29.48890 -92.03768 34036 ft 430 kts 275°
2026-05-07 19:29 29.49936 -92.10542 34028 ft 431 kts 275°
2026-05-07 19:29 29.50979 -92.17320 34026 ft 431 kts 275°
2026-05-07 19:30 29.52019 -92.24096 34065 ft 431 kts 275°
2026-05-07 19:30 29.53056 -92.30881 34056 ft 431 kts 275°
2026-05-07 19:31 29.54081 -92.37610 34035 ft 430 kts 275°
2026-05-07 19:31 29.55108 -92.44381 34024 ft 429 kts 275°
2026-05-07 19:32 29.56129 -92.51125 34024 ft 428 kts 275°
2026-05-07 19:32 29.57145 -92.57866 34028 ft 427 kts 275°
2026-05-07 19:33 29.58154 -92.64586 34043 ft 427 kts 275°
2026-05-07 19:33 29.59153 -92.71261 34039 ft 426 kts 275°
2026-05-07 19:34 29.60156 -92.77986 34038 ft 427 kts 275°
2026-05-07 19:34 29.61158 -92.84710 34039 ft 427 kts 275°
2026-05-07 19:35 29.62155 -92.91445 34035 ft 427 kts 275°
2026-05-07 19:35 29.63145 -92.98183 34033 ft 428 kts 275°
2026-05-07 19:36 29.64130 -93.04940 34035 ft 428 kts 275°
2026-05-07 19:36 29.65109 -93.11655 34037 ft 429 kts 275°
2026-05-07 19:37 29.66094 -93.18425 34036 ft 429 kts 275°
2026-05-07 19:37 29.67076 -93.25196 34032 ft 429 kts 275°
2026-05-07 19:38 29.68054 -93.31968 34040 ft 429 kts 274°
2026-05-07 19:38 29.69030 -93.38751 34036 ft 429 kts 274°
2026-05-07 19:39 29.70002 -93.45529 34039 ft 429 kts 274°
2026-05-07 19:39 29.70964 -93.52262 34029 ft 429 kts 274°
2026-05-07 19:40 29.71929 -93.59046 34032 ft 429 kts 274°
2026-05-07 19:40 29.72892 -93.65832 34028 ft 429 kts 274°
2026-05-07 19:41 29.73849 -93.72609 34031 ft 428 kts 274°
2026-05-07 19:41 29.74802 -93.79385 34029 ft 428 kts 274°
2026-05-07 19:42 29.75745 -93.86107 34025 ft 428 kts 274°
2026-05-07 19:42 29.76690 -93.92877 34026 ft 428 kts 274°
2026-05-07 19:43 29.77630 -93.99633 34034 ft 427 kts 274°
2026-05-07 19:43 29.78566 -94.06380 34023 ft 426 kts 274°
2026-05-07 19:44 29.79494 -94.13105 34034 ft 424 kts 274°
2026-05-07 19:44 29.80418 -94.19820 34032 ft 423 kts 274°
2026-05-07 19:45 29.81335 -94.26514 34019 ft 423 kts 274°
2026-05-07 19:45 29.82248 -94.33198 34035 ft 423 kts 274°
2026-05-07 19:46 29.83160 -94.39885 34021 ft 423 kts 274°
2026-05-07 19:46 29.84062 -94.46548 34023 ft 424 kts 274°
2026-05-07 19:47 29.84965 -94.53251 34039 ft 424 kts 274°
2026-05-07 19:47 29.85867 -94.59963 34035 ft 424 kts 274°
2026-05-07 19:48 29.86769 -94.66683 34037 ft 424 kts 274°
2026-05-07 19:48 29.87669 -94.73414 34036 ft 424 kts 274°
2026-05-07 19:49 29.88559 -94.80090 34044 ft 424 kts 274°
2026-05-07 19:49 29.89452 -94.86817 34035 ft 424 kts 274°
2026-05-07 19:50 29.90341 -94.93540 34038 ft 424 kts 274°
2026-05-07 19:50 29.91226 -95.00264 34050 ft 424 kts 274°
2026-05-07 19:51 29.92109 -95.06989 34049 ft 423 kts 274°
2026-05-07 19:51 29.92985 -95.13696 34051 ft 423 kts 274°
2026-05-07 19:52 29.93858 -95.20404 34055 ft 423 kts 273°
2026-05-07 19:52 29.94726 -95.27082 34082 ft 424 kts 274°
2026-05-07 19:53 29.95595 -95.33811 34054 ft 424 kts 273°
2026-05-07 19:53 29.96583 -95.40515 34053 ft 425 kts 275°
2026-05-07 19:54 29.97693 -95.47204 34065 ft 424 kts 275°
2026-05-07 19:54 29.98787 -95.53860 34070 ft 424 kts 275°
2026-05-07 19:55 29.99866 -95.60563 34098 ft 425 kts 275°
2026-05-07 19:55 30.00936 -95.67264 34004 ft 424 kts 275°
2026-05-07 19:56 30.01998 -95.73942 33994 ft 422 kts 275°
2026-05-07 19:56 30.03051 -95.80582 33999 ft 420 kts 275°
2026-05-07 19:57 30.04091 -95.87171 33970 ft 419 kts 275°
2026-05-07 19:57 30.05135 -95.93797 33964 ft 419 kts 275°
2026-05-07 19:58 30.06175 -96.00410 33950 ft 419 kts 275°
2026-05-07 19:58 30.07211 -96.07036 33920 ft 420 kts 275°
2026-05-07 19:59 30.08238 -96.13690 33885 ft 421 kts 274°
2026-05-07 19:59 30.09255 -96.20317 33875 ft 422 kts 274°
2026-05-07 20:00 30.10282 -96.27006 33897 ft 423 kts 274°
2026-05-07 20:00 30.11309 -96.33709 33883 ft 423 kts 274°
2026-05-07 20:01 30.12324 -96.40357 33903 ft 423 kts 274°
2026-05-07 20:01 30.13345 -96.47060 33901 ft 424 kts 274°
2026-05-07 20:02 30.14363 -96.53777 33907 ft 424 kts 274°
2026-05-07 20:02 30.15376 -96.60487 33936 ft 423 kts 274°
2026-05-07 20:03 30.16385 -96.67189 33991 ft 423 kts 274°
2026-05-07 20:03 30.17391 -96.73897 34035 ft 423 kts 274°
2026-05-07 20:04 30.18385 -96.80538 34077 ft 422 kts 274°
2026-05-07 20:04 30.19380 -96.87216 34123 ft 421 kts 274°
2026-05-07 20:05 30.20371 -96.93894 34117 ft 420 kts 274°
2026-05-07 20:05 30.21357 -97.00549 34152 ft 420 kts 274°
2026-05-07 20:06 30.22331 -97.07157 34128 ft 419 kts 274°
2026-05-07 20:06 30.23304 -97.13799 34103 ft 418 kts 274°
2026-05-07 20:07 30.24270 -97.20423 34050 ft 417 kts 274°
2026-05-07 20:07 30.25235 -97.27042 34053 ft 417 kts 274°
2026-05-07 20:08 30.26195 -97.33658 34075 ft 417 kts 274°
2026-05-07 20:08 30.27153 -97.40267 34073 ft 417 kts 274°
2026-05-07 20:09 30.28110 -97.46898 34073 ft 418 kts 274°
2026-05-07 20:10 30.29539 -97.56848 34096 ft 418 kts 274°
2026-05-07 20:10 30.30442 -97.63161 34099 ft 419 kts 274°
2026-05-07 20:11 30.31390 -97.69818 34095 ft 419 kts 274°
2026-05-07 20:11 30.32336 -97.76482 34102 ft 420 kts 274°
2026-05-07 20:12 30.33281 -97.83164 34123 ft 421 kts 274°
2026-05-07 20:12 30.34225 -97.89863 34129 ft 421 kts 274°
2026-05-07 20:13 30.35166 -97.96562 34131 ft 421 kts 274°
2026-05-07 20:13 30.36100 -98.03242 34133 ft 420 kts 274°
2026-05-07 20:14 30.37026 -98.09887 34143 ft 419 kts 274°
2026-05-07 20:14 30.37951 -98.16545 34124 ft 419 kts 274°
2026-05-07 20:15 30.38873 -98.23210 34115 ft 418 kts 274°
2026-05-07 20:15 30.39636 -98.28734 34126 ft 418 kts 274°
2026-05-07 20:16 30.40697 -98.36465 34125 ft 418 kts 274°
2026-05-07 20:16 30.41457 -98.42041 34126 ft 418 kts 274°
2026-05-07 20:17 30.42358 -98.48665 34094 ft 419 kts 274°
2026-05-07 20:17 30.43265 -98.55340 34095 ft 420 kts 274°
2026-05-07 20:18 30.44173 -98.62034 34104 ft 420 kts 274°
2026-05-07 20:18 30.45076 -98.68723 34108 ft 420 kts 274°
2026-05-07 20:19 30.45978 -98.75434 34104 ft 421 kts 273°
2026-05-07 20:19 30.46877 -98.82157 34113 ft 423 kts 273°
2026-05-07 20:20 30.47778 -98.88906 34107 ft 424 kts 273°
2026-05-07 20:20 30.48674 -98.95645 34119 ft 426 kts 273°
2026-05-07 20:21 30.49573 -99.02439 34111 ft 426 kts 273°
2026-05-07 20:21 30.50470 -99.09240 34114 ft 427 kts 273°
2026-05-07 20:22 30.51365 -99.16059 34109 ft 427 kts 273°
2026-05-07 20:22 30.52254 -99.22854 34116 ft 426 kts 273°
2026-05-07 20:23 30.53136 -99.29632 34113 ft 425 kts 273°
2026-05-07 20:23 30.54010 -99.36372 34106 ft 424 kts 273°
2026-05-07 20:24 30.54883 -99.43132 34116 ft 424 kts 273°
2026-05-07 20:24 30.55754 -99.49916 34123 ft 424 kts 273°
2026-05-07 20:25 30.56621 -99.56678 34119 ft 424 kts 273°
2026-05-07 20:25 30.57483 -99.63438 34122 ft 423 kts 273°
2026-05-07 20:26 30.58343 -99.70202 34130 ft 423 kts 273°
2026-05-07 20:26 30.59199 -99.76954 34148 ft 423 kts 273°
2026-05-07 20:27 30.60051 -99.83743 34115 ft 425 kts 273°
2026-05-07 20:27 30.60884 -99.90506 34129 ft 427 kts 273°
2026-05-07 20:28 30.61721 -99.97344 34122 ft 429 kts 273°
2026-05-07 20:28 30.62565 -100.04226 34120 ft 431 kts 273°
2026-05-07 20:29 30.63403 -100.11086 34091 ft 432 kts 273°
2026-05-07 20:29 30.64244 -100.17996 34107 ft 433 kts 273°
2026-05-07 20:30 30.65083 -100.24917 34103 ft 432 kts 272°
2026-05-07 20:30 30.65917 -100.31832 34117 ft 432 kts 272°
2026-05-07 20:31 30.66749 -100.38756 34132 ft 432 kts 272°
2026-05-07 20:31 30.67573 -100.45662 34136 ft 431 kts 272°
2026-05-07 20:32 30.68393 -100.52557 34152 ft 431 kts 272°
2026-05-07 20:32 30.69210 -100.59451 34163 ft 431 kts 272°
2026-05-07 20:33 30.70024 -100.66355 34156 ft 431 kts 272°
2026-05-07 20:33 30.70830 -100.73216 34157 ft 431 kts 272°
2026-05-07 20:34 30.71637 -100.80107 34147 ft 431 kts 272°
2026-05-07 20:34 30.72438 -100.87016 34136 ft 431 kts 271°
2026-05-07 20:35 30.73236 -100.93929 34115 ft 431 kts 271°
2026-05-07 20:35 30.74032 -101.00835 34137 ft 431 kts 271°
2026-05-07 20:36 30.74821 -101.07693 34148 ft 431 kts 271°
2026-05-07 20:36 30.75612 -101.14597 34164 ft 431 kts 271°
2026-05-07 20:37 30.76398 -101.21501 34169 ft 430 kts 270°
2026-05-07 20:37 30.77182 -101.28412 34086 ft 430 kts 270°
2026-05-07 20:38 30.77960 -101.35297 34088 ft 429 kts 270°
2026-05-07 20:38 30.78732 -101.42173 34089 ft 428 kts 270°
2026-05-07 20:39 30.79495 -101.49002 34082 ft 428 kts 270°
2026-05-07 20:39 30.80259 -101.55869 34084 ft 428 kts 270°
2026-05-07 20:40 30.81017 -101.62724 34081 ft 428 kts 270°
2026-05-07 20:40 30.81773 -101.69589 34097 ft 427 kts 269°
2026-05-07 20:41 30.82525 -101.76447 34079 ft 426 kts 269°
2026-05-07 20:41 30.83269 -101.83259 34073 ft 425 kts 269°
2026-05-07 20:42 30.84010 -101.90086 34067 ft 424 kts 269°
2026-05-07 20:42 30.84745 -101.96901 34074 ft 423 kts 269°
2026-05-07 20:43 30.85476 -102.03702 34065 ft 423 kts 269°
2026-05-07 20:43 30.86204 -102.10514 34061 ft 424 kts 269°
2026-05-07 20:44 30.86927 -102.17317 34054 ft 424 kts 269°
2026-05-07 20:44 30.87647 -102.24127 34051 ft 424 kts 269°
2026-05-07 20:45 30.88366 -102.30947 34050 ft 424 kts 269°
2026-05-07 20:45 30.89080 -102.37770 34042 ft 424 kts 269°
2026-05-07 20:46 30.89787 -102.44551 34056 ft 425 kts 269°
2026-05-07 20:46 30.90495 -102.51380 34040 ft 425 kts 269°
2026-05-07 20:47 30.91202 -102.58223 34049 ft 425 kts 269°
2026-05-07 20:47 30.91904 -102.65063 34064 ft 424 kts 269°
2026-05-07 20:48 30.92601 -102.71882 34080 ft 423 kts 269°
2026-05-07 20:48 30.93293 -102.78690 34106 ft 422 kts 269°
2026-05-07 20:49 30.93978 -102.85451 34002 ft 422 kts 269°
2026-05-07 20:49 30.94661 -102.92252 34076 ft 425 kts 269°
2026-05-07 20:49 30.95042 -102.95674 34399 ft 427 kts 271°
2026-05-07 20:50 30.95637 -102.99071 34834 ft 428 kts 275°
2026-05-07 20:50 30.96477 -103.02397 35308 ft 428 kts 278°
2026-05-07 20:50 30.97402 -103.05679 35772 ft 423 kts 278°
2026-05-07 20:50 30.98310 -103.08933 36014 ft 424 kts 278°
2026-05-07 20:51 30.99219 -103.12222 35986 ft 425 kts 278°
2026-05-07 20:51 31.01025 -103.18776 35986 ft 423 kts 277°
2026-05-07 20:52 31.02817 -103.25300 35986 ft 421 kts 277°
2026-05-07 20:52 31.04599 -103.31805 35985 ft 420 kts 277°
2026-05-07 20:53 31.06359 -103.38250 35994 ft 419 kts 277°
2026-05-07 20:53 31.08127 -103.44741 36007 ft 420 kts 277°
2026-05-07 20:54 31.09895 -103.51242 36029 ft 421 kts 277°
2026-05-07 20:54 31.11665 -103.57766 36025 ft 422 kts 277°
2026-05-07 20:55 31.13426 -103.64266 36021 ft 422 kts 277°
2026-05-07 20:55 31.15195 -103.70809 36018 ft 423 kts 277°
2026-05-07 20:56 31.16962 -103.77364 36005 ft 423 kts 277°
2026-05-07 20:56 31.18725 -103.83916 36003 ft 423 kts 277°
2026-05-07 20:57 31.20485 -103.90473 35989 ft 424 kts 277°
2026-05-07 20:57 31.22246 -103.97048 35996 ft 424 kts 277°
2026-05-07 20:58 31.24004 -104.03627 35996 ft 424 kts 277°
2026-05-07 20:58 31.25751 -104.10179 35995 ft 424 kts 277°
2026-05-07 20:59 31.27505 -104.16772 35995 ft 425 kts 277°
2026-05-07 20:59 31.29256 -104.23371 36015 ft 426 kts 277°
2026-05-07 21:00 31.31009 -104.29991 35996 ft 425 kts 277°
2026-05-07 21:00 31.32754 -104.36593 35986 ft 424 kts 277°
2026-05-07 21:01 31.34482 -104.43147 35974 ft 424 kts 277°
2026-05-07 21:01 31.36216 -104.49744 35976 ft 423 kts 277°
2026-05-07 21:02 31.37945 -104.56331 35973 ft 423 kts 277°
2026-05-07 21:02 31.39666 -104.62909 35974 ft 422 kts 277°
2026-05-07 21:03 31.41094 -104.68376 35974 ft 422 kts 276°
2026-05-07 21:03 31.42807 -104.74948 35974 ft 422 kts 276°
2026-05-07 21:04 31.44518 -104.81530 35966 ft 422 kts 276°
2026-05-07 21:04 31.46226 -104.88110 35965 ft 422 kts 277°
2026-05-07 21:05 31.47927 -104.94683 35970 ft 422 kts 277°
2026-05-07 21:05 31.49620 -105.01240 35963 ft 423 kts 277°
2026-05-07 21:06 31.51322 -105.07847 35952 ft 424 kts 276°
2026-05-07 21:06 31.53026 -105.14478 35950 ft 425 kts 277°
2026-05-07 21:07 31.54733 -105.21129 35950 ft 426 kts 276°
2026-05-07 21:07 31.56426 -105.27740 35931 ft 426 kts 276°
2026-05-07 21:08 31.58130 -105.34406 35940 ft 427 kts 276°
2026-05-07 21:08 31.59825 -105.41072 35934 ft 427 kts 276°
2026-05-07 21:09 31.61513 -105.47748 35933 ft 427 kts 276°
2026-05-07 21:09 31.63200 -105.54426 35925 ft 427 kts 276°
2026-05-07 21:10 31.64888 -105.61119 35926 ft 427 kts 276°
2026-05-07 21:10 31.66572 -105.67813 35936 ft 429 kts 277°
2026-05-07 21:11 31.68253 -105.74504 35929 ft 430 kts 277°
2026-05-07 21:11 31.70788 -105.84628 35920 ft 431 kts 277°
2026-05-07 21:12 31.72476 -105.91389 35912 ft 431 kts 277°
2026-05-07 21:12 31.74151 -105.98112 35905 ft 432 kts 277°
2026-05-07 21:13 31.75832 -106.04877 35954 ft 432 kts 277°
2026-05-07 21:13 31.77516 -106.11672 35978 ft 433 kts 277°
2026-05-07 21:14 31.79199 -106.18471 36002 ft 433 kts 277°
2026-05-07 21:14 31.80872 -106.25273 36027 ft 432 kts 276°
2026-05-07 21:15 31.81947 -106.32125 36039 ft 420 kts 266°
2026-05-07 21:15 31.82420 -106.38947 36041 ft 422 kts 267°
2026-05-07 21:16 31.82917 -106.45851 36037 ft 424 kts 267°
2026-05-07 21:16 31.83524 -106.52757 36030 ft 423 kts 267°
2026-05-07 21:17 31.83987 -106.59680 36072 ft 426 kts 266°
2026-05-07 21:17 31.84457 -106.66637 36077 ft 427 kts 267°
2026-05-07 21:18 31.84954 -106.73620 36084 ft 429 kts 267°
2026-05-07 21:18 31.85459 -106.80601 36078 ft 431 kts 267°
2026-05-07 21:19 31.85965 -106.87638 35897 ft 432 kts 267°
2026-05-07 21:19 31.86467 -106.94674 35890 ft 432 kts 267°
2026-05-07 21:20 31.86964 -107.01711 35874 ft 431 kts 267°
2026-05-07 21:20 31.87457 -107.08747 35892 ft 432 kts 267°
2026-05-07 21:21 31.87946 -107.15817 35893 ft 434 kts 267°
2026-05-07 21:21 31.88435 -107.22906 35891 ft 435 kts 267°
2026-05-07 21:22 31.88918 -107.29965 35884 ft 436 kts 267°
2026-05-07 21:22 31.89401 -107.37086 35882 ft 436 kts 267°
2026-05-07 21:23 31.89881 -107.44213 35888 ft 438 kts 268°
2026-05-07 21:23 31.90357 -107.51364 35882 ft 439 kts 268°
2026-05-07 21:24 31.90834 -107.58552 35880 ft 440 kts 268°
2026-05-07 21:24 31.91308 -107.65743 35883 ft 442 kts 268°
2026-05-07 21:25 31.91775 -107.72929 35897 ft 444 kts 268°
2026-05-07 21:25 31.92611 -107.80184 35890 ft 453 kts 277°
2026-05-07 21:26 31.94322 -107.87389 35883 ft 459 kts 279°
2026-05-07 21:26 31.96091 -107.94623 35883 ft 460 kts 279°
2026-05-07 21:27 31.97845 -108.01892 35886 ft 461 kts 279°
2026-05-07 21:27 31.99585 -108.09167 35880 ft 462 kts 279°
2026-05-07 21:28 32.01320 -108.16455 35879 ft 461 kts 279°
2026-05-07 21:28 32.03046 -108.23729 35881 ft 460 kts 279°
2026-05-07 21:29 32.04754 -108.30940 35885 ft 459 kts 279°
2026-05-07 21:29 32.06466 -108.38187 35884 ft 458 kts 279°
2026-05-07 21:30 32.08166 -108.45410 35921 ft 458 kts 279°
2026-05-07 21:30 32.09864 -108.52648 35947 ft 458 kts 279°
2026-05-07 21:31 32.11565 -108.59914 35964 ft 460 kts 279°
2026-05-07 21:31 32.13260 -108.67174 35979 ft 461 kts 279°
2026-05-07 21:32 32.14962 -108.74482 35981 ft 462 kts 279°
2026-05-07 21:32 32.16663 -108.81808 35886 ft 464 kts 279°
2026-05-07 21:33 32.18369 -108.89172 35885 ft 465 kts 279°
2026-05-07 21:33 32.20073 -108.96553 35875 ft 466 kts 279°
2026-05-07 21:34 32.21778 -109.03954 35886 ft 467 kts 279°
2026-05-07 21:34 32.23480 -109.11367 35879 ft 468 kts 279°
2026-05-07 21:35 32.25177 -109.18767 35880 ft 471 kts 280°
2026-05-07 21:35 32.26922 -109.26248 35882 ft 474 kts 283°
2026-05-07 21:36 32.29350 -109.33568 35886 ft 480 kts 288°
2026-05-07 21:36 32.31945 -109.40852 35878 ft 481 kts 288°
2026-05-07 21:37 32.34531 -109.48166 35891 ft 482 kts 288°
2026-05-07 21:37 32.37079 -109.55454 35881 ft 483 kts 288°
2026-05-07 21:38 32.39637 -109.62814 35869 ft 484 kts 289°
2026-05-07 21:38 32.42194 -109.70191 35882 ft 484 kts 289°
2026-05-07 21:39 32.44749 -109.77576 35891 ft 484 kts 289°
2026-05-07 21:39 32.47301 -109.84966 35895 ft 486 kts 290°
2026-05-07 21:40 32.49853 -109.92373 35892 ft 486 kts 290°
2026-05-07 21:40 32.52409 -109.99811 35897 ft 487 kts 290°
2026-05-07 21:41 32.54959 -110.07246 35885 ft 487 kts 290°
2026-05-07 21:41 32.57491 -110.14649 35893 ft 487 kts 291°
2026-05-07 21:42 32.60040 -110.22118 35890 ft 489 kts 291°
2026-05-07 21:42 32.62596 -110.29619 35893 ft 491 kts 291°
2026-05-07 21:43 32.65157 -110.37155 35885 ft 493 kts 291°
2026-05-07 21:43 32.67703 -110.44670 35872 ft 494 kts 291°
2026-05-07 21:44 32.70270 -110.52253 35881 ft 496 kts 292°
2026-05-07 21:44 32.72838 -110.59863 35875 ft 496 kts 292°
2026-05-07 21:45 32.75398 -110.67469 35872 ft 495 kts 292°
2026-05-07 21:45 32.77946 -110.75057 35864 ft 494 kts 292°
2026-05-07 21:46 32.80486 -110.82642 35870 ft 492 kts 293°
2026-05-07 21:46 32.83011 -110.90197 35865 ft 491 kts 293°
2026-05-07 21:47 32.85527 -110.97742 35863 ft 490 kts 293°
2026-05-07 21:47 32.88017 -111.05225 35863 ft 489 kts 293°
2026-05-07 21:48 32.90516 -111.12755 35856 ft 489 kts 294°
2026-05-07 21:48 32.93012 -111.20294 35863 ft 489 kts 294°
2026-05-07 21:49 32.95491 -111.27795 35862 ft 489 kts 294°
2026-05-07 21:49 32.97982 -111.35353 35861 ft 490 kts 294°
2026-05-07 21:50 33.00471 -111.42926 35861 ft 491 kts 294°
2026-05-07 21:50 33.02958 -111.50510 35860 ft 491 kts 294°
2026-05-07 21:51 33.05432 -111.58070 35888 ft 492 kts 294°
2026-05-07 21:51 33.07911 -111.65666 35890 ft 492 kts 294°
2026-05-07 21:52 33.10387 -111.73275 35893 ft 492 kts 294°
2026-05-07 21:52 33.12861 -111.80892 35896 ft 492 kts 294°
2026-05-07 21:53 33.14912 -111.87224 35903 ft 492 kts 294°
2026-05-07 21:53 33.17775 -111.96079 35896 ft 491 kts 294°
2026-05-07 21:54 33.19834 -112.02461 35888 ft 491 kts 294°
2026-05-07 21:54 33.22269 -112.10028 35862 ft 490 kts 294°
2026-05-07 21:55 33.24712 -112.17638 35878 ft 490 kts 294°
2026-05-07 21:55 33.27146 -112.25240 35887 ft 490 kts 294°
2026-05-07 21:56 33.29579 -112.32852 35899 ft 490 kts 294°
2026-05-07 21:56 33.32006 -112.40474 35890 ft 490 kts 294°
2026-05-07 21:57 33.34427 -112.48091 35892 ft 489 kts 294°
2026-05-07 21:57 33.36826 -112.55653 35906 ft 489 kts 294°
2026-05-07 21:58 33.39233 -112.63259 35910 ft 488 kts 294°
2026-05-07 21:58 33.41629 -112.70849 35913 ft 487 kts 294°
2026-05-07 21:59 33.44020 -112.78438 35913 ft 487 kts 294°
2026-05-07 21:59 33.46438 -112.85967 35906 ft 486 kts 296°
2026-05-07 22:00 33.49112 -112.93388 35899 ft 485 kts 297°
2026-05-07 22:00 33.51831 -113.00786 35891 ft 485 kts 297°
2026-05-07 22:01 33.54517 -113.08215 35886 ft 485 kts 297°
2026-05-07 22:01 33.57169 -113.15642 35884 ft 484 kts 296°
2026-05-07 22:02 33.59804 -113.23050 35887 ft 482 kts 296°
2026-05-07 22:02 33.62437 -113.30465 35889 ft 481 kts 296°
2026-05-07 22:03 33.65038 -113.37802 35897 ft 481 kts 296°
2026-05-07 22:03 33.67653 -113.45191 35951 ft 480 kts 296°
2026-05-07 22:04 33.70261 -113.52579 35970 ft 479 kts 296°
2026-05-07 22:04 33.72859 -113.59955 35968 ft 479 kts 296°
2026-05-07 22:05 33.75453 -113.67335 35902 ft 479 kts 296°
2026-05-07 22:05 33.78032 -113.74685 35904 ft 479 kts 296°
2026-05-07 22:06 33.80611 -113.82072 35912 ft 479 kts 296°
2026-05-07 22:06 33.83124 -113.89498 35909 ft 479 kts 295°
2026-05-07 22:07 33.85621 -113.96929 35905 ft 479 kts 295°
2026-05-07 22:07 33.88130 -114.04367 35903 ft 480 kts 296°
2026-05-07 22:08 33.90619 -114.11834 35888 ft 481 kts 292°
2026-05-07 22:08 33.92198 -114.19711 35898 ft 486 kts 283°
2026-05-07 22:09 33.93368 -114.27681 35890 ft 487 kts 283°
2026-05-07 22:09 33.94618 -114.35697 35890 ft 486 kts 284°
2026-05-07 22:10 33.95949 -114.43682 35876 ft 486 kts 285°
2026-05-07 22:10 33.97301 -114.51676 35882 ft 487 kts 285°
2026-05-07 22:11 33.98646 -114.59679 35883 ft 487 kts 284°
2026-05-07 22:11 33.99981 -114.67693 35884 ft 488 kts 284°
2026-05-07 22:12 34.01312 -114.75719 35882 ft 488 kts 284°
2026-05-07 22:12 34.02630 -114.83697 35889 ft 488 kts 284°
2026-05-07 22:13 34.03954 -114.91732 35887 ft 488 kts 284°
2026-05-07 22:13 34.05272 -114.99771 35883 ft 489 kts 284°
2026-05-07 22:14 34.06582 -115.07816 35886 ft 488 kts 284°
2026-05-07 22:14 34.07884 -115.15856 35887 ft 488 kts 284°
2026-05-07 22:15 34.09182 -115.23886 35887 ft 487 kts 284°
2026-05-07 22:15 34.10475 -115.31900 35895 ft 487 kts 284°
2026-05-07 22:16 34.11756 -115.39874 35900 ft 487 kts 284°
2026-05-07 22:16 34.13041 -115.47909 35902 ft 487 kts 284°
2026-05-07 22:17 34.14319 -115.55931 35903 ft 487 kts 284°
2026-05-07 22:17 34.15586 -115.63917 35896 ft 487 kts 284°
2026-05-07 22:18 34.16007 -115.76191 35028 ft 505 kts 264°
2026-05-07 22:18 34.15468 -115.80392 34277 ft 506 kts 263°
2026-05-07 22:19 34.14933 -115.84574 33486 ft 498 kts 264°
2026-05-07 22:19 34.14469 -115.88652 32921 ft 482 kts 265°
2026-05-07 22:19 34.14072 -115.92613 32375 ft 469 kts 266°
2026-05-07 22:19 34.13704 -115.96467 31854 ft 455 kts 266°
2026-05-07 22:20 34.13343 -116.00222 31385 ft 446 kts 266°
2026-05-07 22:20 34.12980 -116.03958 30931 ft 451 kts 266°
2026-05-07 22:20 34.12608 -116.07769 30459 ft 464 kts 266°
2026-05-07 22:20 34.12225 -116.11683 29932 ft 473 kts 266°
2026-05-07 22:21 34.11836 -116.15624 29314 ft 471 kts 266°
2026-05-07 22:21 34.11447 -116.19534 28758 ft 467 kts 266°
2026-05-07 22:21 34.11067 -116.23364 28241 ft 462 kts 266°
2026-05-07 22:21 34.10686 -116.27194 27712 ft 458 kts 265°
2026-05-07 22:22 34.10304 -116.30997 27208 ft 454 kts 265°
2026-05-07 22:22 34.09909 -116.34753 26708 ft 450 kts 265°
2026-05-07 22:22 34.09505 -116.38490 26209 ft 447 kts 265°
2026-05-07 22:22 34.09103 -116.42192 25730 ft 443 kts 265°
2026-05-07 22:23 34.08707 -116.45869 25246 ft 440 kts 265°
2026-05-07 22:23 34.08314 -116.49523 24765 ft 438 kts 265°
2026-05-07 22:23 34.07925 -116.53151 24302 ft 435 kts 265°
2026-05-07 22:23 34.07536 -116.56744 24044 ft 426 kts 264°
2026-05-07 22:24 34.07159 -116.60257 23760 ft 419 kts 265°
2026-05-07 22:24 34.06824 -116.63742 23315 ft 417 kts 266°
2026-05-07 22:24 34.06510 -116.67210 22829 ft 415 kts 266°
2026-05-07 22:24 34.06200 -116.70657 22399 ft 412 kts 266°
2026-05-07 22:25 34.05891 -116.74043 21951 ft 410 kts 265°
2026-05-07 22:25 34.05578 -116.77449 21557 ft 407 kts 265°
2026-05-07 22:25 34.05262 -116.80842 21139 ft 405 kts 265°
2026-05-07 22:25 34.04947 -116.84207 20718 ft 402 kts 265°
2026-05-07 22:26 34.04631 -116.87558 20306 ft 399 kts 265°
2026-05-07 22:26 34.04295 -116.90862 19879 ft 395 kts 263°
2026-05-07 22:26 34.03866 -116.94118 19516 ft 391 kts 262°
2026-05-07 22:26 34.03420 -116.97351 19104 ft 389 kts 262°
2026-05-07 22:27 34.02990 -117.00562 18704 ft 387 kts 263°
2026-05-07 22:27 34.02573 -117.03758 18279 ft 385 kts 263°
2026-05-07 22:27 34.02187 -117.06940 17831 ft 383 kts 263°
2026-05-07 22:27 34.01817 -117.10114 17423 ft 380 kts 263°
2026-05-07 22:28 34.01453 -117.13247 17007 ft 377 kts 263°
2026-05-07 22:28 34.01094 -117.16316 16627 ft 373 kts 263°
2026-05-07 22:28 34.00727 -117.19409 16250 ft 371 kts 263°
2026-05-07 22:28 34.00359 -117.22484 15847 ft 371 kts 263°
2026-05-07 22:29 33.99992 -117.25554 15458 ft 369 kts 263°
2026-05-07 22:29 33.99625 -117.28605 15062 ft 366 kts 263°
2026-05-07 22:29 33.99262 -117.31625 14670 ft 363 kts 263°
2026-05-07 22:29 33.98912 -117.34587 14216 ft 352 kts 263°
2026-05-07 22:30 33.98571 -117.37503 13516 ft 349 kts 263°
2026-05-07 22:30 33.98234 -117.40385 12782 ft 345 kts 264°
2026-05-07 22:30 33.97899 -117.43226 12338 ft 340 kts 264°
2026-05-07 22:30 33.97563 -117.46080 12184 ft 346 kts 263°
2026-05-07 22:31 33.97288 -117.48892 11978 ft 335 kts 271°
2026-05-07 22:31 33.97625 -117.51538 11954 ft 308 kts 286°
2026-05-07 22:31 33.98115 -117.54008 11853 ft 302 kts 286°
2026-05-07 22:31 33.98578 -117.56490 11494 ft 302 kts 285°
2026-05-07 22:32 33.99027 -117.58940 11176 ft 297 kts 284°
2026-05-07 22:32 33.99457 -117.61355 10863 ft 292 kts 284°
2026-05-07 22:32 33.99868 -117.63693 10552 ft 278 kts 284°
2026-05-07 22:32 34.00257 -117.65928 10324 ft 270 kts 287°
2026-05-07 22:33 34.00634 -117.68148 10011 ft 270 kts 282°
2026-05-07 22:33 34.00613 -117.70415 9707 ft 272 kts 266°
2026-05-07 22:33 34.00359 -117.72678 9403 ft 271 kts 265°
2026-05-07 22:33 34.00098 -117.74924 9130 ft 270 kts 265°
2026-05-07 22:34 33.99845 -117.77158 8825 ft 268 kts 264°
2026-05-07 22:34 33.99610 -117.79380 8550 ft 267 kts 264°
2026-05-07 22:34 33.99387 -117.81592 8273 ft 265 kts 264°
2026-05-07 22:34 33.99170 -117.83790 7997 ft 261 kts 265°
2026-05-07 22:35 33.98960 -117.85942 7718 ft 256 kts 265°
2026-05-07 22:35 33.98754 -117.88042 7449 ft 250 kts 264°
2026-05-07 22:35 33.98553 -117.90092 7188 ft 248 kts 265°
2026-05-07 22:35 33.98351 -117.92150 6929 ft 246 kts 264°
2026-05-07 22:36 33.98151 -117.94189 6679 ft 244 kts 264°
2026-05-07 22:36 33.97954 -117.96187 6444 ft 234 kts 263°
2026-05-07 22:36 33.97764 -117.98117 6183 ft 230 kts 264°
2026-05-07 22:36 33.97577 -118.00019 5924 ft 225 kts 263°
2026-05-07 22:37 33.97393 -118.01876 5683 ft 221 kts 263°
2026-05-07 22:37 33.97210 -118.03709 5448 ft 219 kts 263°
2026-05-07 22:37 33.97030 -118.05515 5217 ft 218 kts 263°
2026-05-07 22:37 33.96847 -118.07343 4974 ft 222 kts 264°
2026-05-07 22:38 33.96691 -118.09203 4699 ft 223 kts 265°
2026-05-07 22:38 33.96524 -118.11063 4391 ft 222 kts 264°
2026-05-07 22:38 33.96346 -118.12860 4093 ft 209 kts 264°
2026-05-07 22:38 33.96174 -118.14532 3867 ft 195 kts 263°
2026-05-07 22:39 33.96013 -118.16095 3607 ft 187 kts 264°
2026-05-07 22:39 33.95856 -118.17639 3392 ft 187 kts 263°
2026-05-07 22:39 33.95695 -118.19202 3171 ft 188 kts 264°
2026-05-07 22:39 33.95534 -118.20772 2918 ft 189 kts 264°
2026-05-07 22:40 33.95375 -118.22331 2682 ft 184 kts 264°
2026-05-07 22:40 33.95273 -118.23325 2506 ft 176 kts 263°
2026-05-07 22:40 33.95125 -118.24748 2273 ft 169 kts 262°
2026-05-07 22:40 33.94983 -118.26146 2075 ft 169 kts 262°
2026-05-07 22:41 33.94844 -118.27510 1878 ft 158 kts 260°
2026-05-07 22:41 33.94711 -118.28793 1663 ft 153 kts 260°
2026-05-07 22:41 33.94583 -118.30036 1438 ft 153 kts 260°
2026-05-07 22:41 33.94448 -118.31354 1269 ft 159 kts 260°
2026-05-07 22:42 33.94312 -118.32669 1033 ft 157 kts 260°
2026-05-07 22:42 33.94172 -118.33965 876 ft 155 kts 261°
2026-05-07 22:42 33.94050 -118.35233 626 ft 150 kts 262°
2026-05-07 22:42 33.93926 -118.36473 413 ft 149 kts 262°
2026-05-07 22:43 33.93794 -118.37701 274 ft 144 kts 261°
2026-05-07 22:43 33.93679 -118.38839 115 ft 126 kts 261°
2026-05-07 22:43 33.93586 -118.39751 99 ft 87 kts 263°
2026-05-07 22:43 33.93533 -118.40258 101 ft 43 kts 263°
2026-05-07 22:44 33.93501 -118.40566 99 ft 18 kts 263°
2026-05-07 22:44 33.93486 -118.40679 98 ft 10 kts 244°
2026-05-07 22:44 33.93431 -118.40716 100 ft 10 kts 184°
2026-05-07 22:44 33.93377 -118.40680 99 ft 10 kts 114°
2026-05-07 22:45 33.93377 -118.40597 100 ft 10 kts 85°
2026-05-07 22:45 33.93384 -118.40510 99 ft 11 kts 82°
2026-05-07 22:45 33.93393 -118.40426 98 ft 7 kts 83°
2026-05-07 22:45 33.93400 -118.40363 98 ft 7 kts 83°
2026-05-07 22:46 33.93406 -118.40302 99 ft 7 kts 83°
2026-05-07 22:46 33.93412 -118.40240 98 ft 7 kts 83°
2026-05-07 22:46 33.93418 -118.40178 98 ft 7 kts 83°
2026-05-07 22:46 33.93425 -118.40116 99 ft 7 kts 83°
2026-05-07 22:47 33.93431 -118.40054 99 ft 7 kts 83°
2026-05-07 22:47 33.93437 -118.39992 101 ft 7 kts 83°
2026-05-07 22:47 33.93444 -118.39930 98 ft 7 kts 83°
2026-05-07 22:47 33.93450 -118.39868 100 ft 7 kts 83°
2026-05-07 22:48 33.93457 -118.39806 99 ft 7 kts 82°
2026-05-07 22:48 33.93463 -118.39744 101 ft 7 kts 83°
2026-05-07 22:48 33.93469 -118.39682 98 ft 7 kts 83°
2026-05-07 22:48 33.93476 -118.39620 101 ft 7 kts 83°
2026-05-07 22:49 33.93482 -118.39559 98 ft 7 kts 83°
2026-05-07 22:49 33.93488 -118.39497 98 ft 7 kts 83°
2026-05-07 22:49 33.93494 -118.39435 100 ft 7 kts 83°
2026-05-07 22:49 33.93501 -118.39373 98 ft 7 kts 83°
2026-05-07 22:50 33.93507 -118.39312 99 ft 7 kts 83°
2026-05-07 22:50 33.93513 -118.39250 100 ft 7 kts 83°
2026-05-07 22:50 33.93520 -118.39188 97 ft 7 kts 83°
2026-05-07 22:50 33.93526 -118.39126 98 ft 7 kts 83°
2026-05-07 22:51 33.93521 -118.39066 101 ft 7 kts 125°
2026-05-07 22:51 33.93472 -118.39058 98 ft 7 kts 185°
2026-05-07 22:51 33.93435 -118.39059 101 ft 4 kts 180°
2026-05-07 22:51 33.93410 -118.39059 98 ft 3 kts 180°
2026-05-07 22:52 33.93402 -118.39059 98 ft 1 kts 180°
2026-05-07 22:52 33.93401 -118.39059 98 ft 0 kts 180°